Weather in Izhevka

Russia / Republic of Tatarstan     55°57′49″N   52°37′32″E
temp.,
°C
wind,
m/s
gust,
m/s
humid.,
%
clouds,
%
prec.,
mm/h
press.,
hPa
HPBL,
m
20 september, mon
mon2000:00+1nnw347929 0.0 102663
03:000nnw227860 0.0 102720
06:00+1n237462 0.0 102769
09:00+6nne3449100 0.0 10281037
12:00+9ne334133 0.0 10281310
15:00+9ne344189 0.0 10281324
18:00+5ne2359100 0.0 102823
21:00+4ne356746 0.0 102994
21 september, tue
tue2100:00+2ene378497 0.0 1029151
03:00+1ene36899 0.0 1029123
06:00+1ene378634 0.0 1029173
09:00+7e455779 0.0 1028593
12:00+10e4446100 0.0 10261062
15:00+11ese4444100 0.0 10251120
18:00+7e226099 0.0 102413
21:00+5ene336847 0.0 102435
22 september, wed
wed2200:00+4ene34735 0.0 102353
03:00+3e35775 0.0 102377
06:00+3ene387776 0.0 1023148
09:00+9e5751100 0.0 1023501
12:00+13ese6742100 0.0 1022846
15:00+14ese5743100 0.0 1022911
18:00+9e486085 0.0 1022148
21:00+10e51055100 0.0 1023293
23 september, thu
thu2300:00+9e4957100 0.0 1023263
03:00+9ese4958100 0.0 1023252
06:00+9ese4956100 0.0 1023249
09:00+11ese51150100 0.0 1023335
12:00+17sse6938100 0.0 1023918
15:00+15sse3741100 0.0 1022187
18:00+13se2546100 0.0 1022104
21:00+11sw4762100 0.3 1023276
24 september, fri
fri2400:00+9sse51391100 3.0 1023653
03:00+10sse51288100 3.8 1023616
06:00+10se51384100 0.1 1022486
09:00+12sse61270100 0.1 1021809
12:00+11se51159100 0.0 1020649
15:00+11sse4958100 0.3 1019493
18:00+10e41165100 1.1 1018311
21:00+12ese71551100 1.1 1015489